Flag for Mauritania Weather past 2 weeks in Nouakchott, Mauritania

Now
100 °F

Clear.


Feels Like: 95 °F
Forecast: 73 / 101 °F
Wind: 8 mph from Northeast

Location: Nouakchott Airport

Current Time: Oct 25, 2014 at 1:36:06 PM

Latest Report: Oct 25, 2014 at 1:00 PM


Visibility: 5 mi

Pressure: 29.83 "Hg

Humidity: 9%

Dew point: 32 °F

Location of NouakchottLocation

Historic Weather in Nouakchott — Graph

°F

Nouakchott temperature yesterday

Maximum temperature yesterday: 104 °F (at 2:00 PM)
Minimum temperature yesterday: 72 °F (at 7:00 AM)
Average temperature yesterday: 87 °F

Past Weeks' High & Low Weather Summary

 TemperatureHumidityPressure
High108 °F (Oct 22, 2:30 PM)89% (Oct 20, 11:30 PM)29.95 "Hg (Oct 20, 11:30 PM)
Low72 °F (Oct 24, 7:00 AM)6% (Oct 24, 3:30 PM)29.77 "Hg (Oct 10, 2:30 PM)
Average84 °F51%29.85 "Hg
* Reported Oct 10 12:00 Noon — Oct 25 12:30 PM, Nouakchott, Weather by CustomWeather, © 2014

Note: Actual official high and low records may vary slightly from our data, if they occured in-between our weather recording intervals... More about our weather records

Advertising

Nouakchott weather history for previous 24 hours

 ConditionsComfort  
Time TempWeatherWind HumidityBarometerVisibility
12:30 PM
Oct 25
100 °FClear.8 mph8%29.86 "Hg5 mi
12:00 PM99 °FClear.10 mph10%29.86 "Hg5 mi
11:30 AM97 °FClear.9 mph10%29.89 "Hg5 mi
11:00 AM95 °FClear.12 mph11%29.89 "Hg5 mi
10:30 AM93 °FClear.10 mph12%29.89 "Hg5 mi
10:00 AM88 °FClear.12 mph17%29.89 "Hg5 mi
9:30 AM86 °FClear.9 mph19%29.89 "Hg5 mi
9:00 AM82 °FClear.10 mph23%29.86 "Hg5 mi
8:30 AM79 °FClear.8 mph26%29.86 "Hg5 mi
8:00 AM77 °FClear.7 mph32%29.86 "Hg5 mi
7:30 AM75 °FClear.7 mph34%29.86 "Hg5 mi
7:00 AM75 °FClear.8 mph34%29.83 "Hg5 mi
6:30 AM77 °FClear.10 mph30%29.83 "Hg5 mi
6:00 AM75 °FClear.9 mph34%29.83 "Hg5 mi
5:30 AM77 °FClear.10 mph34%29.83 "Hg5 mi
5:00 AM77 °FClear.9 mph32%29.80 "Hg5 mi
4:30 AM77 °FClear.8 mph34%29.80 "Hg5 mi
4:00 AM73 °FClear.6 mph33%29.80 "Hg5 mi
3:30 AM73 °FClear.6 mph31%29.80 "Hg5 mi
3:00 AM72 °FClear.6 mph36%29.83 "Hg5 mi
2:30 AM73 °FMild.5 mph36%29.83 "HgN/A
2:00 AM73 °FClear.5 mph36%29.83 "Hg5 mi
1:30 AM75 °FClear.3 mph36%29.83 "Hg5 mi
1:00 AM77 °FClear.3 mph36%29.83 "Hg5 mi
12:30 AM79 °FClear.7 mph34%29.86 "Hg5 mi
12:00 AM81 °FClear.8 mph32%29.86 "Hg5 mi
11:30 PM
Oct 24
81 °FClear.5 mph26%29.86 "Hg5 mi
11:00 PM81 °FClear.2 mph28%29.86 "Hg5 mi
10:30 PM82 °FClear.2 mph26%29.86 "Hg5 mi
10:00 PM82 °FClear.2 mph30%29.86 "Hg5 mi
9:30 PM84 °FClear.5 mph29%29.86 "Hg5 mi
9:00 PM86 °FClear.5 mph25%29.86 "Hg5 mi
8:30 PM86 °FClear.5 mph22%29.83 "Hg5 mi
8:00 PM86 °FClear.5 mph22%29.83 "Hg5 mi
7:30 PM88 °FClear.6 mph22%29.83 "Hg5 mi
7:00 PM88 °FClear.7 mph19%29.80 "Hg4 mi
6:30 PM90 °FClear.7 mph15%29.80 "Hg4 mi
6:00 PM91 °FClear.8 mph15%29.80 "Hg4 mi
5:30 PM93 °FClear.7 mph16%29.80 "Hg4 mi
5:00 PM95 °FClear.7 mph14%29.80 "Hg4 mi
4:30 PM95 °FClear.8 mph13%29.80 "Hg4 mi
4:00 PM97 °FClear.9 mph13%29.80 "Hg4 mi
3:30 PM104 °FClear.8 mph6%29.80 "Hg4 mi
3:00 PM104 °FClear.9 mph7%29.80 "Hg4 mi
2:30 PM104 °FClear.7 mph7%29.83 "Hg4 mi
2:00 PM104 °FClear.8 mph7%29.83 "Hg4 mi
1:30 PM102 °FClear.7 mph8%29.83 "Hg4 mi
1:00 PM102 °FClear.3 mph8%29.86 "Hg4 mi
Weather by CustomWeather, © 2014

See weather overviewHow to use our weather pages